Change the Weather History Date:

Thursday, October 17, 2013

  Actual Average (KFAR) Record (KFAR)
Temperature  
Mean Temperature 42 °F 45 °F  
Max Temperature 48 °F 56 °F 90 °F (1910)
Min Temperature 35 °F 35 °F 13 °F (1976)
Degree Days  
Heating Degree Days 24 20  
Month to date heating degree days 278  
Since 1 July heating degree days 548  
Cooling Degree Days 0 0  
Month to date cooling degree days 0  
Year to date cooling degree days 548  
Moisture  
Dew Point 40 °F    
Average Humidity 87    
Maximum Humidity 100    
Minimum Humidity 66    
Precipitation  
Precipitation 0.00 in 0.07 in 1.25 in (1883)
Month to date precipitation 1.32  
Year to date precipitation 19.95  
Snow  
Snow 0.00 in 0.00 in 1.30 in (1990)
Month to date snowfall 0.2  
Since 1 July snowfall 0.2  
Since 1 September snowfall 0.2  
Snow Depth -    
Sea Level Pressure  
Sea Level Pressure 29.90 in    
Wind  
Wind Speed 8 mph (NNW)    
Max Wind Speed 21 mph    
Max Gust Speed 30 mph    
Visibility 10 miles    
Events Rain    
T = Trace of Precipitation, MM = Missing Value Source: NWS Daily Summary

Daily Weather History Graph

Daily Weather History Graph

Search for Another Location

Airport or City:

Trip Planner

Search our weather history database for the weather conditions in past years. The results will help you decide how hot, cold, wet, or windy it might be!

Date:

Astronomy

Oct. 17, 2013 Rise Set
Actual Time 7:47 AM CDT 6:35 PM CDT
Civil Twilight 7:16 AM CDT 7:06 PM CDT
Nautical Twilight 6:41 AM CDT 7:41 PM CDT
Astronomical Twilight 6:06 AM CDT 8:16 PM CDT
Moon 5:52 PM CDT (10/17) 6:17 AM CDT (10/17)
Length of Visible Light 11h 49m
Length of Day
10h 47m
Waxing Gibbous, 98% of the Moon is Illuminated
Oct 17
Waxing Gibbous
Oct 18
Full
Oct 26
Last Quarter
Nov 3
New
Nov 9
First Quarter

Hourly Weather History & Observations

Time (CDT) Temp. Windchill Dew Point Humidity Pressure Visibility Wind Dir Wind Speed Gust Speed Precip Events Conditions
12:14 AM 48.2 °F - 44.6 °F 87% 29.82 in 10.0 mi Calm Calm - N/A   Overcast
12:35 AM 48.2 °F - 44.6 °F 87% 29.81 in 10.0 mi Calm Calm - N/A   Overcast
12:55 AM 48.2 °F - 44.6 °F 87% 29.81 in 10.0 mi Calm Calm - N/A   Overcast
1:14 AM 48.2 °F - 44.6 °F 87% 29.81 in 10.0 mi Calm Calm - N/A   Overcast
1:35 AM 46.4 °F - 44.6 °F 93% 29.81 in 10.0 mi Calm Calm - N/A   Overcast
1:54 AM 46.4 °F - 46.4 °F 100% 29.81 in 10.0 mi Calm Calm - N/A   Overcast
2:15 AM 46.4 °F - 46.4 °F 100% 29.81 in 10.0 mi Calm Calm - N/A   Overcast
2:35 AM 46.4 °F - 46.4 °F 100% 29.82 in 10.0 mi Calm Calm - N/A   Overcast
2:54 AM 46.4 °F - 46.4 °F 100% 29.82 in 10.0 mi Calm Calm - N/A   Overcast
3:15 AM 46.4 °F - 46.4 °F 100% 29.81 in 10.0 mi Calm Calm - N/A   Overcast
3:35 AM 46.4 °F - 44.6 °F 93% 29.81 in 10.0 mi Calm Calm - N/A   Overcast
3:54 AM 46.4 °F 44.3 °F 46.4 °F 100% 29.82 in 10.0 mi NW 4.6 mph - N/A   Overcast
4:15 AM 46.4 °F 43.5 °F 46.4 °F 100% 29.82 in 10.0 mi North 5.8 mph - N/A   Overcast
4:35 AM 46.4 °F 41.1 °F 46.4 °F 100% 29.83 in 10.0 mi North 11.5 mph - N/A   Overcast
4:54 AM 46.4 °F 40.1 °F 44.6 °F 93% 29.83 in 10.0 mi North 15.0 mph - N/A   Overcast
5:14 AM 46.4 °F 41.1 °F 44.6 °F 93% 29.83 in 10.0 mi North 11.5 mph - N/A   Overcast
5:35 AM 46.4 °F 41.1 °F 44.6 °F 93% 29.84 in 10.0 mi North 11.5 mph - N/A   Overcast
5:54 AM 46.4 °F 41.1 °F 44.6 °F 93% 29.84 in 10.0 mi North 11.5 mph - N/A   Overcast
6:14 AM 46.4 °F 40.7 °F 44.6 °F 93% 29.84 in 10.0 mi North 12.7 mph 17.3 mph N/A   Overcast
6:35 AM 44.6 °F 38.1 °F 44.6 °F 100% 29.85 in 10.0 mi North 13.8 mph - N/A   Overcast
6:55 AM 44.6 °F 38.1 °F 44.6 °F 100% 29.85 in 10.0 mi North 13.8 mph - N/A   Overcast
7:15 AM 44.6 °F 38.1 °F 44.6 °F 100% 29.85 in 10.0 mi North 13.8 mph - N/A   Overcast
7:34 AM 44.6 °F 37.8 °F 44.6 °F 100% 29.85 in 10.0 mi North 15.0 mph - N/A   Overcast
7:55 AM 44.6 °F 37.4 °F 44.6 °F 100% 29.86 in 10.0 mi North 16.1 mph - N/A   Overcast
8:15 AM 44.6 °F 37.4 °F 44.6 °F 100% 29.88 in 10.0 mi North 16.1 mph 21.9 mph N/A   Overcast
8:34 AM 44.6 °F 37.2 °F 42.8 °F 93% 29.88 in 10.0 mi North 17.3 mph 20.7 mph N/A   Overcast
8:55 AM 44.6 °F 37.4 °F 42.8 °F 93% 29.89 in 10.0 mi North 16.1 mph 21.9 mph N/A   Overcast
9:15 AM 42.8 °F 34.5 °F 39.2 °F 87% 29.90 in 10.0 mi North 18.4 mph 25.3 mph N/A   Light Drizzle
9:34 AM 42.8 °F 34.5 °F 39.2 °F 87% 29.90 in 10.0 mi North 18.4 mph 23.0 mph N/A Rain Light Rain
9:55 AM 42.8 °F 34.8 °F 39.2 °F 87% 29.91 in 10.0 mi North 17.3 mph - N/A   Light Drizzle
10:15 AM 42.8 °F 35.1 °F 39.2 °F 87% 29.92 in 10.0 mi North 16.1 mph - N/A   Light Drizzle
10:34 AM 42.8 °F 35.4 °F 39.2 °F 87% 29.93 in 10.0 mi North 15.0 mph - N/A   Light Drizzle
10:55 AM 42.8 °F 35.1 °F 39.2 °F 87% 29.93 in 10.0 mi North 16.1 mph - N/A   Overcast
11:15 AM 42.8 °F 34.5 °F 39.2 °F 87% 29.93 in 10.0 mi North 18.4 mph - N/A   Overcast
11:34 AM 42.8 °F 34.3 °F 37.4 °F 81% 29.93 in 10.0 mi North 19.6 mph 29.9 mph N/A   Light Drizzle
11:55 AM 44.6 °F 37.2 °F 41.0 °F 87% 29.93 in 10.0 mi North 17.3 mph - N/A   Light Drizzle
12:15 PM 44.6 °F 36.9 °F 39.2 °F 81% 29.93 in 10.0 mi North 18.4 mph 26.5 mph N/A   Scattered Clouds
12:34 PM 46.4 °F 39.0 °F 39.2 °F 76% 29.93 in 10.0 mi North 19.6 mph 23.0 mph N/A   Clear
12:55 PM 46.4 °F 39.0 °F 37.4 °F 71% 29.93 in 10.0 mi North 19.6 mph 24.2 mph N/A   Scattered Clouds
1:15 PM 46.4 °F 38.7 °F 37.4 °F 71% 29.92 in 10.0 mi North 20.7 mph - N/A   Scattered Clouds
1:34 PM 46.4 °F 39.5 °F 39.2 °F 76% 29.92 in 10.0 mi North 17.3 mph 23.0 mph N/A   Scattered Clouds
1:55 PM 46.4 °F 39.2 °F 39.2 °F 76% 29.92 in 10.0 mi North 18.4 mph 24.2 mph N/A   Mostly Cloudy
2:15 PM 46.4 °F 39.8 °F 39.2 °F 76% 29.92 in 10.0 mi North 16.1 mph 19.6 mph N/A   Mostly Cloudy
2:34 PM 46.4 °F 39.8 °F 39.2 °F 76% 29.92 in 10.0 mi NNW 16.1 mph - N/A   Mostly Cloudy
2:55 PM 46.4 °F 40.1 °F 37.4 °F 71% 29.92 in 10.0 mi North 15.0 mph - N/A   Mostly Cloudy
3:15 PM 46.4 °F 39.5 °F 37.4 °F 71% 29.92 in 10.0 mi North 17.3 mph 23.0 mph N/A   Overcast
3:34 PM 46.4 °F 40.1 °F 39.2 °F 76% 29.92 in 10.0 mi NNW 15.0 mph 21.9 mph N/A   Overcast
3:55 PM 46.4 °F 39.8 °F 39.2 °F 76% 29.93 in 10.0 mi NNW 16.1 mph - N/A   Overcast
4:15 PM 46.4 °F 39.2 °F 37.4 °F 71% 29.93 in 10.0 mi North 18.4 mph - N/A   Overcast
4:34 PM 46.4 °F 39.5 °F 35.6 °F 66% 29.93 in 10.0 mi North 17.3 mph 23.0 mph N/A   Overcast
4:55 PM 46.4 °F 39.8 °F 35.6 °F 66% 29.93 in 10.0 mi North 16.1 mph - N/A   Overcast
5:15 PM 46.4 °F 40.4 °F 35.6 °F 66% 29.93 in 10.0 mi NNW 13.8 mph 17.3 mph N/A   Overcast
5:34 PM 46.4 °F 40.7 °F 35.6 °F 66% 29.94 in 10.0 mi NNW 12.7 mph - N/A   Overcast
5:55 PM 46.4 °F 41.1 °F 35.6 °F 66% 29.94 in 10.0 mi North 11.5 mph - N/A   Overcast
6:14 PM 44.6 °F 38.4 °F 35.6 °F 71% 29.94 in 10.0 mi North 12.7 mph - N/A   Overcast
6:35 PM 44.6 °F 40.2 °F 35.6 °F 71% 29.95 in 10.0 mi NNW 8.1 mph - N/A   Mostly Cloudy
6:55 PM 42.8 °F 39.3 °F 37.4 °F 81% 29.95 in 10.0 mi NNW 5.8 mph - N/A   Mostly Cloudy
7:14 PM 42.8 °F 39.3 °F 37.4 °F 81% 29.96 in 10.0 mi NNW 5.8 mph - N/A   Mostly Cloudy
7:35 PM 41.0 °F 37.1 °F 37.4 °F 87% 29.96 in 10.0 mi NNW 5.8 mph - N/A   Scattered Clouds
7:55 PM 39.2 °F 35.0 °F 35.6 °F 87% 29.96 in 10.0 mi NNW 5.8 mph - N/A   Clear
8:14 PM 39.2 °F 34.2 °F 35.6 °F 87% 29.96 in 10.0 mi NW 6.9 mph - N/A   Clear
8:35 PM 37.4 °F 32.1 °F 35.6 °F 93% 29.96 in 10.0 mi NW 6.9 mph - N/A   Clear
8:55 PM 37.4 °F 32.1 °F 35.6 °F 93% 29.96 in 10.0 mi NW 6.9 mph - N/A   Clear
9:14 PM 37.4 °F 31.4 °F 33.8 °F 87% 29.97 in 10.0 mi NW 8.1 mph - N/A   Clear
9:35 PM 37.4 °F 32.1 °F 35.6 °F 93% 29.97 in 10.0 mi NW 6.9 mph - N/A   Clear
9:55 PM 37.4 °F 32.1 °F 33.8 °F 87% 29.97 in 10.0 mi WNW 6.9 mph - N/A   Clear
10:14 PM 37.4 °F 31.4 °F 33.8 °F 87% 29.97 in 10.0 mi WNW 8.1 mph - N/A   Clear
10:35 PM 35.6 °F 30.7 °F 33.8 °F 93% 29.97 in 10.0 mi WNW 5.8 mph - N/A   Clear
10:55 PM 35.6 °F 30.7 °F 33.8 °F 93% 29.97 in 10.0 mi WNW 5.8 mph - N/A   Clear
11:14 PM 35.6 °F 32.8 °F 33.8 °F 93% 29.97 in 10.0 mi WNW 3.5 mph - N/A   Clear
11:35 PM 35.6 °F 30.7 °F 33.8 °F 93% 29.97 in 10.0 mi WNW 5.8 mph - N/A   Clear
11:55 PM 35.6 °F 32.8 °F 33.8 °F 93% 29.97 in 10.0 mi WNW 3.5 mph - N/A   Clear